Home   Weather   Menden (Sauerland)   Past weeks

Flag for Germany Past Weather in Menden (Sauerland), North Rhine-Westphalia, Germany — Yesterday and Last 2 Weeks

Now
55 °F

Clear.


Feels Like: 54 °F
Forecast: 53 / 67 °F
Wind: 6 mph from South

Location: Dortmund / Wickede

Current Time: Sep 27, 2016 at 9:10:18 PM

Latest Report: Sep 27, 2016 at 8:20 PM


Visibility: 10 mi

Pressure: 30.27 "Hg

Humidity: 63%

Dew Point: 43 °F

Location of Menden (Sauerland)Location

Past Weather in Menden (Sauerland) — Graph

°F

Menden (Sauerland) Temperature Yesterday

Maximum temperature yesterday: 70 °F (at 3:50 PM)
Minimum temperature yesterday: 52 °F (at 7:20 AM)
Average temperature yesterday: 60 °F

High & Low Weather Summary for the Past Weeks

 TemperatureHumidityPressure
High90 °F (Sep 13, 3:20 PM)88% (Sep 16, 6:20 AM)30.30 "Hg (Sep 16, 6:20 AM)
Low45 °F (Sep 21, 6:20 AM)23% (Sep 15, 2:50 PM)29.80 "Hg (Sep 15, 3:50 PM)
Average64 °F57%30.07 "Hg
* Reported Sep 12 7:20 PM — Sep 27 7:50 PM, Menden (Sauerland), Weather by CustomWeather, © 2016

Note: Actual official high and low records may vary slightly from our data, if they occured in-between our weather recording intervals... More about our weather records

Advertising

Menden (Sauerland) Weather History for the Previous 24 Hours

Scroll right to see more
 ConditionsComfort  
Time TempWeatherWind HumidityBarometerVisibility
7:50 PM
Tue, Sep 27
55 °FClear.6 mph63%30.27 "Hg10 mi
7:20 PM57 °FClear.6 mph55%30.27 "Hg10 mi
6:50 PM64 °FSunny.8 mph46%30.27 "Hg10 mi
6:20 PM68 °FSunny.8 mph40%30.27 "Hg10 mi
5:50 PM70 °FSunny.9 mph33%30.27 "Hg10 mi
5:20 PM70 °FPassing clouds.8 mph33%30.27 "HgN/A
4:50 PM70 °FPassing clouds.6 mph35%30.27 "HgN/A
4:20 PM72 °FPassing clouds.8 mph36%30.27 "HgN/A
3:50 PM72 °FSunny.5 mph36%30.27 "Hg10 mi
3:20 PM70 °FPassing clouds.7 mph38%30.27 "HgN/A
2:50 PM70 °FSunny.3 mph38%30.27 "Hg10 mi
2:20 PM70 °FSunny.3 mph38%30.27 "Hg10 mi
1:50 PM68 °FPassing clouds.5 mph40%30.30 "HgN/A
1:20 PM68 °FPassing clouds.5 mph43%30.30 "HgN/A
12:50 PM66 °FPassing clouds.5 mph46%30.30 "HgN/A
12:20 PM66 °FSunny.3 mph49%30.30 "Hg10 mi
11:50 AM64 °FSunny.3 mph56%30.30 "Hg10 mi
11:20 AM64 °FSunny.2 mph56%30.30 "Hg10 mi
10:50 AM64 °FSunny.2 mph56%30.30 "Hg10 mi
10:20 AM59 °FSunny.3 mph63%30.27 "Hg10 mi
9:50 AM57 °FPassing clouds.6 mph67%30.30 "HgN/A
9:20 AM55 °FSunny.6 mph72%30.27 "Hg10 mi
8:50 AM54 °FSunny.5 mph77%30.27 "Hg10 mi
8:20 AM50 °FSunny.5 mph82%30.27 "Hg10 mi
7:50 AM48 °FSunny.6 mph82%30.27 "Hg10 mi
7:20 AM48 °FClear.6 mph87%30.27 "Hg10 mi
6:50 AM50 °FClear.6 mph82%30.27 "Hg10 mi
6:20 AM50 °FClear.3 mph82%30.24 "Hg10 mi
5:50 AM52 °FClear.5 mph77%30.24 "Hg10 mi
5:20 AM50 °FClear.3 mph82%30.24 "Hg10 mi
9:50 PM
Mon, Sep 26
57 °FClear.2 mph59%30.24 "Hg10 mi
9:20 PM59 °FClear.3 mph59%30.24 "Hg10 mi
Weather by CustomWeather, © 2016

See weather overviewHow to use our weather pages